{"data":{"norad_id":64434,"epoch":"2026-05-24T23:32:09.721248Z","epoch_age_seconds":86968,"freshness":"FRESH","line1":"1 64434U 25129Y   26144.98066807  .00001393  00000+0  12449-3 0  9999","line2":"2 64434  70.0004 242.1457 0003625 271.9710  88.1034 14.98337401 52711","mean_motion":14.98337401,"eccentricity":0.0003625,"inclination_deg":70.0004,"raan_deg":242.1457,"arg_perigee_deg":271.971,"mean_anomaly_deg":88.1034,"bstar":0.00012449,"rev_number":5271,"period_min":96.106524407582,"perigee_km":569.51356743016,"apogee_km":574.55244068311,"semimajor_km":6950.1700040566,"source":"CELESTRAK","updated_at":"2026-05-25T13:38:20.444667Z"}}